Location: Newark
(41.8083°N, 72.2500°W)
Time: 20:39:34
(UTC+00:00)

deb Explorer IX - Pass Details

Date: 30 November 2021
Orbit: 544 x 1082 km, 38.8° (Epoch: 16 January)

Event Time Altitude Azimuth Distance (km) Brightness Sun altitude
Rises 22:03:08 0° 267° (W) 2,741 ? -8.2°
Reaches altitude 10° 22:06:23 10° 239° (WSW) 1,902 ? -8.8°
Maximum altitude 22:08:28 13° 210° (SSW) 1,742 ? -9.1°
Drops below altitude 10° 22:10:39 10° 182° (S) 2,008 ? -9.5°
Sets 22:14:18 0° 155° (SSE) 3,034 ? -10.2°
